Time,TemperatureF,DewpointF,PressureIn,WindDirection,WindDirectionDegrees,WindSpeedMPH,WindSpeedGustMPH,Humidity,HourlyPrecipIn,Conditions,Clouds,dailyrainin,SoftwareType,DateUTC
2013-05-23 00:05:00,62.6,62.0,29.79,South,180,1.6,-999.0,98,-99.99,,,0.00,Acu-Link.com,2013-05-23 04:05:00,
2013-05-23 00:20:00,62.6,62.0,29.78,SSE,157,2.7,-999.0,98,-99.99,,,0.02,Acu-Link.com,2013-05-23 04:20:00,
2013-05-23 00:35:00,62.6,62.0,29.78,SSE,157,2.7,-999.0,98,-99.99,,,0.04,Acu-Link.com,2013-05-23 04:35:00,
2013-05-23 00:50:00,62.6,62.0,29.79,SSE,157,3.1,-999.0,98,-99.99,,,0.04,Acu-Link.com,2013-05-23 04:50:00,
2013-05-23 01:06:00,62.6,62.0,29.79,South,180,3.1,-999.0,98,-99.99,,,0.06,Acu-Link.com,2013-05-23 05:06:00,
2013-05-23 01:21:00,62.6,62.0,29.79,NE,45,2.0,-999.0,98,-99.99,,,0.06,Acu-Link.com,2013-05-23 05:21:00,
2013-05-23 01:36:00,62.6,62.0,29.79,SE,135,3.6,-999.0,98,-99.99,,,0.06,Acu-Link.com,2013-05-23 05:36:00,
2013-05-23 01:52:00,62.6,62.0,29.78,ESE,112,1.6,-999.0,98,-99.99,,,0.07,Acu-Link.com,2013-05-23 05:52:00,
2013-05-23 02:07:00,62.6,62.0,29.79,ESE,112,2.7,-999.0,98,-99.99,,,0.07,Acu-Link.com,2013-05-23 06:07:00,
2013-05-23 02:22:00,62.6,62.0,29.79,North,0,2.0,-999.0,98,-99.99,,,0.07,Acu-Link.com,2013-05-23 06:22:00,
2013-05-23 02:38:00,62.6,62.0,29.78,NNE,22,1.6,-999.0,98,-99.99,,,0.07,Acu-Link.com,2013-05-23 06:38:00,
2013-05-23 02:53:00,62.6,62.0,29.78,NW,315,2.0,-999.0,98,-99.99,,,0.07,Acu-Link.com,2013-05-23 06:53:00,
2013-05-23 03:08:00,62.6,62.0,29.79,SW,225,0.0,-999.0,98,-99.99,,,0.07,Acu-Link.com,2013-05-23 07:08:00,
2013-05-23 03:23:00,62.6,62.0,29.79,SW,225,0.0,-999.0,98,-99.99,,,0.07,Acu-Link.com,2013-05-23 07:23:00,
2013-05-23 03:39:00,62.6,62.0,29.79,NE,45,2.0,-999.0,98,-99.99,,,0.12,Acu-Link.com,2013-05-23 07:39:00,
2013-05-23 03:54:00,62.6,62.0,29.78,SSE,157,1.6,-999.0,98,-99.99,,,0.15,Acu-Link.com,2013-05-23 07:54:00,
2013-05-23 04:11:00,62.6,62.0,29.77,East,90,1.1,-999.0,98,-99.99,,,0.22,Acu-Link.com,2013-05-23 08:11:00,
2013-05-23 04:26:00,62.6,62.0,29.77,NE,45,0.0,-999.0,98,-99.99,,,0.24,Acu-Link.com,2013-05-23 08:26:00,
2013-05-23 04:41:00,62.6,62.0,29.77,ENE,67,0.0,-999.0,98,-99.99,,,0.25,Acu-Link.com,2013-05-23 08:41:00,
2013-05-23 04:56:00,62.6,62.0,29.78,NNW,337,1.6,-999.0,98,-99.99,,,0.26,Acu-Link.com,2013-05-23 08:56:00,
2013-05-23 05:11:00,62.6,62.0,29.77,North,0,2.7,-999.0,98,-99.99,,,0.30,Acu-Link.com,2013-05-23 09:11:00,
2013-05-23 05:26:00,62.6,62.0,29.77,South,180,0.0,-999.0,98,-99.99,,,0.32,Acu-Link.com,2013-05-23 09:26:00,
2013-05-23 05:41:00,62.6,62.0,29.77,NW,315,0.0,-999.0,98,-99.99,,,0.32,Acu-Link.com,2013-05-23 09:41:00,
2013-05-23 05:56:00,62.6,62.0,29.77,East,90,0.0,-999.0,98,-99.99,,,0.32,Acu-Link.com,2013-05-23 09:56:00,
2013-05-23 06:12:00,62.6,62.0,29.77,South,180,0.0,-999.0,98,-99.99,,,0.32,Acu-Link.com,2013-05-23 10:12:00,
2013-05-23 06:27:00,62.6,62.0,29.76,SE,135,0.0,-999.0,98,-99.99,,,0.32,Acu-Link.com,2013-05-23 10:27:00,
2013-05-23 06:42:00,62.6,62.0,29.77,South,180,0.0,-999.0,98,-99.99,,,0.32,Acu-Link.com,2013-05-23 10:42:00,
2013-05-23 06:58:00,62.6,62.0,29.78,South,180,0.0,-999.0,98,-99.99,,,0.32,Acu-Link.com,2013-05-23 10:58:00,
2013-05-23 07:13:00,62.6,62.0,29.78,SSW,202,0.0,-999.0,98,-99.99,,,0.32,Acu-Link.com,2013-05-23 11:13:00,
2013-05-23 07:28:00,64.4,63.8,29.79,SW,225,0.0,-999.0,98,-99.99,,,0.32,Acu-Link.com,2013-05-23 11:28:00,
2013-05-23 07:44:00,64.4,63.8,29.79,SE,135,2.0,-999.0,98,-99.99,,,0.32,Acu-Link.com,2013-05-23 11:44:00,
2013-05-23 07:59:00,64.4,63.8,29.79,SW,225,2.0,-999.0,98,-99.99,,,0.32,Acu-Link.com,2013-05-23 11:59:00,
2013-05-23 08:14:00,64.4,63.8,29.79,SW,225,2.7,-999.0,98,-99.99,,,0.32,Acu-Link.com,2013-05-23 12:14:00,
2013-05-23 08:29:00,64.4,63.8,29.78,SW,225,2.0,-999.0,98,-99.99,,,0.32,Acu-Link.com,2013-05-23 12:29:00,
2013-05-23 08:45:00,66.2,65.6,29.78,SW,225,2.7,-999.0,98,-99.99,,,0.32,Acu-Link.com,2013-05-23 12:45:00,
2013-05-23 09:00:00,68.0,67.4,29.79,WSW,247,1.6,-999.0,98,-99.99,,,0.32,Acu-Link.com,2013-05-23 13:00:00,
2013-05-23 09:15:00,68.0,67.4,29.79,SW,225,1.6,-999.0,98,-99.99,,,0.32,Acu-Link.com,2013-05-23 13:15:00,
2013-05-23 09:31:00,68.0,67.4,29.78,SW,225,2.0,-999.0,98,-99.99,,,0.32,Acu-Link.com,2013-05-23 13:31:00,
2013-05-23 09:46:00,68.0,67.4,29.79,SSW,202,2.7,-999.0,98,-99.99,,,0.32,Acu-Link.com,2013-05-23 13:46:00,
2013-05-23 10:01:00,68.0,67.4,29.78,WSW,247,3.6,-999.0,98,-99.99,,,0.32,Acu-Link.com,2013-05-23 14:01:00,
2013-05-23 10:17:00,68.0,67.4,29.79,WSW,247,2.7,-999.0,98,-99.99,,,0.32,Acu-Link.com,2013-05-23 14:17:00,
2013-05-23 10:32:00,69.8,69.2,29.78,South,180,2.7,-999.0,98,-99.99,,,0.32,Acu-Link.com,2013-05-23 14:32:00,
2013-05-23 10:47:00,69.8,67.7,29.78,SSE,157,3.1,-999.0,93,-99.99,,,0.32,Acu-Link.com,2013-05-23 14:47:00,
2013-05-23 11:02:00,71.6,68.5,29.78,WSW,247,3.1,-999.0,90,-99.99,,,0.32,Acu-Link.com,2013-05-23 15:02:00,
2013-05-23 11:18:00,71.6,67.5,29.78,SW,225,2.0,-999.0,87,-99.99,,,0.32,Acu-Link.com,2013-05-23 15:18:00,
2013-05-23 11:33:00,71.6,68.2,29.78,SW,225,5.1,-999.0,89,-99.99,,,0.32,Acu-Link.com,2013-05-23 15:33:00,
2013-05-23 11:48:00,73.4,66.5,29.77,NNW,337,4.0,-999.0,79,-99.99,,,0.32,Acu-Link.com,2013-05-23 15:48:00,
2013-05-23 12:04:00,73.4,66.1,29.77,NNE,22,0.0,-999.0,78,-99.99,,,0.32,Acu-Link.com,2013-05-23 16:04:00,
2013-05-23 12:19:00,75.2,67.5,29.78,WNW,292,2.0,-999.0,77,-99.99,,,0.32,Acu-Link.com,2013-05-23 16:19:00,
2013-05-23 12:34:00,75.2,67.1,29.77,SSW,202,4.0,-999.0,76,-99.99,,,0.32,Acu-Link.com,2013-05-23 16:34:00,
2013-05-23 12:50:00,77.0,67.7,29.77,WSW,247,4.0,-999.0,73,-99.99,,,0.32,Acu-Link.com,2013-05-23 16:50:00,
2013-05-23 13:05:00,78.8,69.0,29.77,West,270,5.6,-999.0,72,-99.99,,,0.32,Acu-Link.com,2013-05-23 17:05:00,
2013-05-23 13:20:00,77.0,68.1,29.76,South,180,4.7,-999.0,74,-99.99,,,0.32,Acu-Link.com,2013-05-23 17:20:00,
2013-05-23 13:35:00,77.0,67.3,29.76,WSW,247,4.0,-999.0,72,-99.99,,,0.32,Acu-Link.com,2013-05-23 17:35:00,
2013-05-23 13:50:00,80.6,67.7,29.74,South,180,4.7,-999.0,65,-99.99,,,0.32,Acu-Link.com,2013-05-23 17:50:00,
2013-05-23 14:06:00,80.6,67.7,29.74,SSW,202,6.3,-999.0,65,-99.99,,,0.32,Acu-Link.com,2013-05-23 18:06:00,
2013-05-23 14:21:00,80.6,67.3,29.74,WNW,292,1.1,-999.0,64,-99.99,,,0.32,Acu-Link.com,2013-05-23 18:21:00,
2013-05-23 14:36:00,80.6,68.2,29.73,West,270,3.6,-999.0,66,-99.99,,,0.32,Acu-Link.com,2013-05-23 18:36:00,
2013-05-23 14:52:00,78.8,66.9,29.73,WSW,247,2.7,-999.0,67,-99.99,,,0.32,Acu-Link.com,2013-05-23 18:52:00,
2013-05-23 15:07:00,82.4,66.6,29.73,SE,135,4.7,-999.0,59,-99.99,,,0.32,Acu-Link.com,2013-05-23 19:07:00,
2013-05-23 15:22:00,80.6,62.4,29.72,South,180,6.7,-999.0,54,-99.99,,,0.32,Acu-Link.com,2013-05-23 19:22:00,
2013-05-23 15:38:00,82.4,63.0,29.71,West,270,5.6,-999.0,52,-99.99,,,0.32,Acu-Link.com,2013-05-23 19:38:00,
2013-05-23 15:53:00,82.4,61.3,29.70,WSW,247,5.1,-999.0,49,-99.99,,,0.32,Acu-Link.com,2013-05-23 19:53:00,
2013-05-23 16:08:00,82.4,60.7,29.70,SW,225,5.6,-999.0,48,-99.99,,,0.32,Acu-Link.com,2013-05-23 20:08:00,
2013-05-23 16:23:00,82.4,63.0,29.69,SW,225,6.7,-999.0,52,-99.99,,,0.32,Acu-Link.com,2013-05-23 20:23:00,
2013-05-23 16:38:00,82.4,63.5,29.68,West,270,4.0,-999.0,53,-99.99,,,0.32,Acu-Link.com,2013-05-23 20:38:00,
2013-05-23 16:53:00,82.4,63.5,29.68,West,270,3.6,-999.0,53,-99.99,,,0.32,Acu-Link.com,2013-05-23 20:53:00,
2013-05-23 17:08:00,80.6,60.2,29.68,SSW,202,4.7,-999.0,50,-99.99,,,0.32,Acu-Link.com,2013-05-23 21:08:00,
2013-05-23 17:24:00,82.4,57.0,29.68,SW,225,4.7,-999.0,42,-99.99,,,0.32,Acu-Link.com,2013-05-23 21:24:00,
2013-05-23 17:39:00,82.4,58.3,29.68,WSW,247,4.7,-999.0,44,-99.99,,,0.32,Acu-Link.com,2013-05-23 21:39:00,
2013-05-23 17:54:00,86.0,58.8,29.68,SSE,157,4.7,-999.0,40,-99.99,,,0.32,Acu-Link.com,2013-05-23 21:54:00,
2013-05-23 18:10:00,86.0,58.8,29.67,West,270,5.1,-999.0,40,-99.99,,,0.32,Acu-Link.com,2013-05-23 22:10:00,
2013-05-23 18:25:00,86.0,58.8,29.67,WNW,292,5.1,-999.0,40,-99.99,,,0.32,Acu-Link.com,2013-05-23 22:25:00,
2013-05-23 18:40:00,86.0,58.8,29.67,WSW,247,8.3,-999.0,40,-99.99,,,0.32,Acu-Link.com,2013-05-23 22:40:00,
2013-05-23 18:56:00,80.6,57.3,29.68,WNW,292,6.7,-999.0,45,-99.99,,,0.32,Acu-Link.com,2013-05-23 22:56:00,
2013-05-23 19:11:00,78.8,57.4,29.68,West,270,8.7,-999.0,48,-99.99,,,0.32,Acu-Link.com,2013-05-23 23:11:00,
2013-05-23 19:26:00,78.8,58.6,29.68,WSW,247,4.7,-999.0,50,-99.99,,,0.32,Acu-Link.com,2013-05-23 23:26:00,
2013-05-23 19:41:00,77.0,56.4,29.68,SSW,202,3.1,-999.0,49,-99.99,,,0.32,Acu-Link.com,2013-05-23 23:41:00,
2013-05-23 19:57:00,77.0,56.9,29.68,WSW,247,6.7,-999.0,50,-99.99,,,0.32,Acu-Link.com,2013-05-23 23:57:00,
2013-05-23 20:12:00,75.2,56.9,29.69,NW,315,2.7,-999.0,53,-99.99,,,0.32,Acu-Link.com,2013-05-24 00:12:00,
2013-05-23 20:27:00,73.4,57.2,29.69,WSW,247,3.1,-999.0,57,-99.99,,,0.32,Acu-Link.com,2013-05-24 00:27:00,
2013-05-23 20:43:00,71.6,57.0,29.69,WSW,247,3.6,-999.0,60,-99.99,,,0.32,Acu-Link.com,2013-05-24 00:43:00,
2013-05-23 20:58:00,71.6,58.3,29.70,WSW,247,5.6,-999.0,63,-99.99,,,0.32,Acu-Link.com,2013-05-24 00:58:00,
2013-05-23 21:13:00,71.6,58.8,29.70,West,270,4.0,-999.0,64,-99.99,,,0.32,Acu-Link.com,2013-05-24 01:13:00,
2013-05-23 21:29:00,71.6,57.9,29.71,SW,225,3.1,-999.0,62,-99.99,,,0.32,Acu-Link.com,2013-05-24 01:29:00,
2013-05-23 21:44:00,71.6,57.4,29.72,WSW,247,1.6,-999.0,61,-99.99,,,0.32,Acu-Link.com,2013-05-24 01:44:00,
2013-05-23 21:59:00,71.6,57.9,29.72,West,270,1.6,-999.0,62,-99.99,,,0.32,Acu-Link.com,2013-05-24 01:59:00,
2013-05-23 22:14:00,69.8,57.1,29.74,WNW,292,2.0,-999.0,64,-99.99,,,0.32,Acu-Link.com,2013-05-24 02:14:00,
2013-05-23 22:30:00,69.8,57.1,29.74,WSW,247,0.0,-999.0,64,-99.99,,,0.32,Acu-Link.com,2013-05-24 02:30:00,
2013-05-23 22:45:00,68.0,56.2,29.75,SSE,157,0.0,-999.0,66,-99.99,,,0.32,Acu-Link.com,2013-05-24 02:45:00,
2013-05-23 23:00:00,68.0,56.2,29.75,SSW,202,2.0,-999.0,66,-99.99,,,0.32,Acu-Link.com,2013-05-24 03:00:00,
2013-05-23 23:16:00,68.0,55.8,29.75,WNW,292,5.6,-999.0,65,-99.99,,,0.32,Acu-Link.com,2013-05-24 03:16:00,
2013-05-23 23:31:00,68.0,55.8,29.75,WSW,247,2.0,-999.0,65,-99.99,,,0.32,Acu-Link.com,2013-05-24 03:31:00,
2013-05-23 23:46:00,68.0,55.8,29.75,NNE,22,1.1,-999.0,65,-99.99,,,0.32,Acu-Link.com,2013-05-24 03:46:00,